This is the latest recevied weather packets stored in our database for station/object N1ICS-1. If no packets are shown the sender has not sent any weather packets the latest 10 day(s).
| Time | Temp. | Humidity | Pressure | Rain* | Wind** | Luminosity | Snow |
|---|---|---|---|---|---|---|---|
| 1778007602 | 10° C | 98% | 1010.3 hPa | 1.02 mm | - | 93 W/m² | - |
| 1778007302 | 10° C | 98% | 1010.3 hPa | 2.29 mm | - | 134 W/m² | - |
| 1778007002 | 10.56° C | 97% | 1010.1 hPa | 2.79 mm | - | 193 W/m² | - |
| 1778006702 | 10° C | 97% | 1010.4 hPa | 1.78 mm | - | 189 W/m² | - |
| 1778006401 | 10° C | 97% | 1010.7 hPa | 1.78 mm | - | 150 W/m² | - |
| 1778006102 | 10.56° C | 98% | 1010.7 hPa | 2.79 mm | - | 120 W/m² | - |
| 1778005802 | 10.56° C | 97% | 1010.5 hPa | 2.79 mm | - | 150 W/m² | - |
| 1778005502 | 10.56° C | 97% | 1010.6 hPa | 2.29 mm | - | 119 W/m² | - |
| 1778005202 | 10.56° C | 96% | 1010.6 hPa | 1.78 mm | - | 73 W/m² | - |
| 1778004901 | 10.56° C | 95% | 1010.3 hPa | 0.51 mm | - | 82 W/m² | - |
| 1778004602 | 10.56° C | 95% | 1010.3 hPa | 0.51 mm | - | 80 W/m² | - |
| 1778004301 | 10.56° C | 94% | 1010.3 hPa | 0.51 mm | - | 90 W/m² | - |
| 1778004002 | 10.56° C | 93% | 1010.2 hPa | 0.51 mm | - | 139 W/m² | - |
| 1778003702 | 10.56° C | 94% | 1010.4 hPa | 0.51 mm | - | 71 W/m² | - |
| 1778003401 | 10.56° C | 93% | 1010.3 hPa | 0.51 mm | - | 79 W/m² | - |
| 1778003102 | 10.56° C | 93% | 1009.7 hPa | 1.02 mm | - | 209 W/m² | - |
| 1778002802 | 10.56° C | 93% | 1010.4 hPa | 1.78 mm | - | 76 W/m² | - |
| 1778002502 | 10.56° C | 93% | 1010.2 hPa | 2.79 mm | - | 99 W/m² | - |
| 1778002202 | 10.56° C | 91% | 1010.1 hPa | 2.29 mm | - | 110 W/m² | - |
| 1778001902 | 10.56° C | 90% | 1010.4 hPa | 1.78 mm | - | 123 W/m² | - |
| 1778001602 | 10.56° C | 88% | 1010.2 hPa | 1.02 mm | - | 109 W/m² | - |
| 1778001302 | 10.56° C | 88% | 1010.4 hPa | 1.02 mm | - | 127 W/m² | - |
| 1778001002 | 11.11° C | 89% | 1010.3 hPa | 1.78 mm | - | 115 W/m² | - |
| 1778000701 | 11.11° C | 88% | 1010.4 hPa | 1.02 mm | - | 150 W/m² | - |
| 1778000403 | 10.56° C | 89% | 1010.2 hPa | 1.78 mm | - | 145 W/m² | - |
* Rain latest hour (hover to see other rain measurements)
** Current wind speed in m/s (hover to see current wind gust speed)